| time (UTC) | temp F | wind direction | speed knots | gust knots | rain 1hr in | rain 24hr in | rain mn in | humidity % | barometer mb |
| 20260506043837 | 48 | 321 | 1.7 | 4.3 | 0.04 | 0.52 | 0.19 | 99 | 1006.9 |
| 20260506043336 | 48 | 340 | 1.7 | 4.3 | 0.04 | 0.52 | 0.19 | 99 | 1006.9 |
| 20260506042838 | 48 | 33 | 1.7 | 4.3 | 0.03 | 0.52 | 0.19 | 99 | 1006.9 |
| 20260506042336 | 48 | 35 | 1.7 | 2.6 | 0.03 | 0.52 | 0.19 | 99 | 1006.9 |
| 20260506040338 | 48 | 322 | 1.7 | 4.3 | 0.02 | 0.49 | 0.16 | 99 | 1007.0 |
| 20260506035840 | 48 | 357 | 1.7 | 4.3 | 0.02 | 0.49 | 0.16 | 99 | 1007.0 |
| 20260506033337 | 49 | 336 | 1.7 | 5.2 | 0.02 | 0.48 | 0.15 | 99 | 1006.9 |
| 20260506030337 | 49 | 2 | 1.7 | 4.3 | 0.02 | 0.47 | 0.14 | 99 | 1007.1 |
| 20260506025839 | 49 | 327 | 1.7 | 4.3 | 0.02 | 0.47 | 0.14 | 98 | 1007.1 |
| 20260506025336 | 49 | 17 | 1.7 | 5.2 | 0.04 | 0.47 | 0.14 | 98 | 1007.3 |
| 20260506024337 | 49 | 20 | 0.0 | 4.3 | 0.03 | 0.46 | 0.13 | 98 | 1007.3 |
| 20260506021837 | 49 | 344 | 0.9 | 4.3 | 0.04 | 0.45 | 0.12 | 98 | 1007.3 |
| 20260506020837 | 49 | 10 | 1.7 | 4.3 | 0.05 | 0.45 | 0.12 | 98 | 1007.4 |
| 20260506020337 | 49 | 350 | 1.7 | 4.3 | 0.05 | 0.45 | 0.12 | 98 | 1007.4 |
| 20260506015839 | 49 | 17 | 1.7 | 4.3 | 0.06 | 0.45 | 0.12 | 98 | 1007.4 |
| 20260506015336 | 49 | 5 | 1.7 | 4.3 | 0.04 | 0.43 | 0.10 | 98 | 1007.4 |
| 20260506014336 | 49 | 43 | 1.7 | 4.3 | 0.04 | 0.43 | 0.10 | 98 | 1007.4 |
| 20260506011836 | 49 | 324 | 0.9 | 4.3 | 0.03 | 0.41 | 0.08 | 98 | 1007.5 |
| 20260506010337 | 49 | 322 | 1.7 | 4.3 | 0.02 | 0.40 | 0.07 | 98 | 1007.6 |
| 20260506005337 | 49 | 330 | 0.9 | 4.3 | 0.01 | 0.39 | 0.06 | 98 | 1007.6 |
| 20260506003337 | 49 | 331 | 1.7 | 1.7 | 0.02 | 0.39 | 0.06 | 98 | 1007.8 |
| 20260506002337 | 49 | 348 | 0.0 | 4.3 | 0.01 | 0.38 | 0.05 | 98 | 1008.0 |
| 20260506001836 | 49 | 2 | 1.7 | 2.6 | 0.01 | 0.38 | 0.05 | 98 | 1008.0 |
| 20260506000836 | 49 | 0 | 0.9 | 4.3 | 0.01 | 0.38 | 0.05 | 98 | 1008.1 |
| 20260505235840 | 49 | 36 | 1.7 | 4.3 | 0.02 | 0.38 | 0.05 | 98 | 1008.1 |
| 20260505234837 | 49 | 338 | 1.7 | 2.6 | 0.01 | 0.37 | 0.04 | 98 | 1008.2 |
| 20260505234337 | 50 | 334 | 1.7 | 5.2 | 0.01 | 0.37 | 0.04 | 98 | 1008.2 |
| 20260505233837 | 50 | 341 | 1.7 | 4.3 | 0.01 | 0.37 | 0.04 | 98 | 1008.3 |
| 20260505232839 | 50 | 13 | 1.7 | 2.6 | 0.01 | 0.37 | 0.04 | 98 | 1008.3 |
| 20260505232337 | 50 | 356 | 1.7 | 4.3 | 0.01 | 0.37 | 0.04 | 98 | 1008.3 |
| 20260505231836 | 50 | 342 | 1.7 | 6.1 | 0.03 | 0.37 | 0.04 | 98 | 1008.3 |
| 20260505230336 | 50 | 14 | 1.7 | 4.3 | 0.02 | 0.36 | 0.03 | 98 | 1008.4 |
| 20260505225336 | 50 | 25 | 1.7 | 6.1 | 0.03 | 0.36 | 0.03 | 98 | 1008.5 |
| 20260505223837 | 50 | 31 | 1.7 | 6.1 | 0.04 | 0.36 | 0.03 | 98 | 1008.4 |
| 20260505223337 | 50 | 356 | 1.7 | 4.3 | 0.05 | 0.36 | 0.03 | 98 | 1008.4 |
| 20260505222841 | 50 | 3 | 1.7 | 5.2 | 0.05 | 0.36 | 0.03 | 98 | 1008.4 |
| 20260505215344 | 50 | 339 | 0.9 | 4.3 | 0.06 | 0.33 | 0.33 | 98 | 1008.6 |
| 20260505214337 | 50 | 355 | 0.9 | 4.3 | 0.07 | 0.33 | 0.33 | 98 | 1008.6 |
| 20260505213836 | 50 | 340 | 0.9 | 2.6 | 0.06 | 0.32 | 0.32 | 98 | 1008.7 |
| 20260505213337 | 50 | 1 | 0.9 | 2.6 | 0.07 | 0.32 | 0.32 | 98 | 1008.7 |
| 20260505212838 | 50 | 346 | 0.9 | 4.3 | 0.06 | 0.31 | 0.31 | 98 | 1008.7 |
| 20260505212337 | 51 | 348 | 0.0 | 2.6 | 0.06 | 0.31 | 0.31 | 98 | 1008.8 |
| 20260505211841 | 51 | 317 | 0.0 | 2.6 | 0.06 | 0.30 | 0.30 | 98 | 1008.8 |
| 20260505211337 | 51 | 29 | 0.0 | 1.7 | 0.06 | 0.30 | 0.30 | 98 | 1008.8 |
| 20260505210837 | 51 | 29 | 0.9 | 1.7 | 0.06 | 0.29 | 0.29 | 98 | 1008.8 |
| 20260505210337 | 51 | 29 | 0.9 | 2.6 | 0.05 | 0.28 | 0.28 | 98 | 1008.8 |
| 20260505205838 | 51 | 356 | 0.9 | 2.6 | 0.06 | 0.28 | 0.28 | 98 | 1008.8 |
| 20260505205337 | 51 | 353 | 0.9 | 1.7 | 0.05 | 0.27 | 0.27 | 98 | 1008.9 |
| 20260505204843 | 51 | 356 | 0.9 | 4.3 | 0.06 | 0.27 | 0.27 | 98 | 1008.9 |
| 20260505201837 | 51 | 336 | 1.7 | 4.3 | 0.06 | 0.24 | 0.24 | 98 | 1008.9 |
| 20260505200837 | 51 | 338 | 0.9 | 4.3 | 0.06 | 0.23 | 0.23 | 98 | 1008.9 |
| 20260505195838 | 51 | 345 | 1.7 | 4.3 | 0.06 | 0.22 | 0.22 | 98 | 1008.9 |
| 20260505194846 | 51 | 319 | 1.7 | 5.2 | 0.05 | 0.21 | 0.21 | 98 | 1008.8 |
| 20260505193837 | 51 | 342 | 1.7 | 4.3 | 0.06 | 0.20 | 0.20 | 98 | 1008.7 |
| 20260505192837 | 51 | 321 | 1.7 | 4.3 | 0.06 | 0.19 | 0.19 | 97 | 1008.7 |
| 20260505192336 | 51 | 8 | 1.7 | 4.3 | 0.06 | 0.19 | 0.19 | 97 | 1008.6 |
| 20260505191336 | 51 | 336 | 1.7 | 4.3 | 0.06 | 0.18 | 0.18 | 97 | 1008.6 |
| 20260505190337 | 51 | 1 | 1.7 | 4.3 | 0.06 | 0.17 | 0.17 | 97 | 1008.6 |
| 20260505185838 | 51 | 328 | 1.7 | 1.7 | 0.06 | 0.16 | 0.16 | 97 | 1008.6 |
| 20260505185336 | 51 | 21 | 1.7 | 4.3 | 0.06 | 0.16 | 0.16 | 97 | 1008.6 |
| 20260505184337 | 51 | 333 | 1.7 | 4.3 | 0.06 | 0.14 | 0.14 | 97 | 1008.6 |
| 20260505182336 | 51 | 8 | 1.7 | 4.3 | 0.07 | 0.13 | 0.13 | 97 | 1008.6 |
| 20260505181336 | 51 | 340 | 1.7 | 4.3 | 0.07 | 0.12 | 0.12 | 97 | 1008.6 |
| 20260505180336 | 51 | 17 | 1.7 | 4.3 | 0.07 | 0.11 | 0.11 | 97 | 1008.6 |
| 20260505175838 | 52 | 21 | 2.6 | 5.2 | 0.07 | 0.10 | 0.10 | 97 | 1008.6 |
| 20260505175336 | 52 | 8 | 2.6 | 5.2 | 0.07 | 0.10 | 0.10 | 97 | 1008.7 |
| 20260505174837 | 52 | 13 | 2.6 | 5.2 | 0.07 | 0.09 | 0.09 | 97 | 1008.7 |
| 20260505173836 | 52 | 21 | 1.7 | 7.8 | 0.06 | 0.07 | 0.07 | 96 | 1008.7 |
| 20260505173336 | 52 | 3 | 1.7 | 6.1 | 0.06 | 0.07 | 0.07 | 97 | 1008.7 |
| 20260505172337 | 52 | 20 | 1.7 | 7.8 | 0.05 | 0.06 | 0.06 | 96 | 1008.7 |
| 20260505170836 | 52 | 15 | 1.7 | 5.2 | 0.04 | 0.05 | 0.05 | 96 | 1008.7 |
| 20260505170343 | 53 | 34 | 1.7 | 4.3 | 0.03 | 0.04 | 0.04 | 96 | 1008.7 |
| 20260505165339 | 53 | 356 | 2.6 | 5.2 | 0.02 | 0.03 | 0.03 | 96 | 1008.8 |
| 20260505163836 | 53 | 22 | 2.6 | 6.1 | 0.00 | 0.01 | 0.01 | 95 | 1008.9 |
| 20260505163337 | 53 | 354 | 2.6 | 5.2 | 0.00 | 0.01 | 0.01 | 95 | 1008.9 |
| 20260505161836 | 53 | 57 | 1.7 | 4.3 | 0.00 | 0.01 | 0.01 | 95 | 1008.8 |
| 20260505160337 | 54 | 56 | 1.7 | 5.2 | 0.00 | 0.01 | 0.01 | 95 | 1008.9 |
| 20260505152838 | 54 | 35 | 2.6 | 7.8 | 0.00 | 0.03 | 0.01 | 95 | 1009.0 |
| 20260505151837 | 54 | 24 | 2.6 | 8.7 | 0.00 | 0.03 | 0.01 | 95 | 1009.0 |
| 20260505151336 | 54 | 25 | 2.6 | 7.0 | 0.00 | 0.03 | 0.01 | 95 | 1009.0 |
| 20260505150836 | 54 | 27 | 3.5 | 7.0 | 0.00 | 0.03 | 0.01 | 95 | 1009.0 |
| 20260505150337 | 54 | 7 | 4.3 | 6.1 | 0.00 | 0.04 | 0.01 | 95 | 1009.0 |
| 20260505121836 | 57 | 21 | 5.2 | 6.1 | 0.01 | 0.16 | 0.01 | 95 | 1009.6 |
| 20260505115838 | 57 | 20 | 4.3 | 7.8 | 0.01 | 0.16 | 0.01 | 94 | 1009.6 |
| 20260505115336 | 57 | 41 | 4.3 | 6.1 | 0.00 | 0.15 | 0.00 | 93 | 1009.7 |
| 20260505114836 | 57 | 3 | 4.3 | 6.1 | 0.00 | 0.15 | 0.00 | 93 | 1009.7 |
| 20260505114336 | 58 | 33 | 4.3 | 8.7 | 0.00 | 0.15 | 0.00 | 92 | 1009.7 |
| 20260505112336 | 59 | 44 | 1.7 | 7.8 | 0.00 | 0.15 | 0.00 | 89 | 1009.7 |
| 20260505111836 | 59 | 81 | 0.9 | 4.3 | 0.00 | 0.15 | 0.00 | 90 | 1009.7 |
| 20260505111336 | 59 | 74 | 0.0 | 4.3 | 0.00 | 0.15 | 0.00 | 90 | 1009.7 |
| 20260505110836 | 59 | 78 | 0.9 | 4.3 | 0.00 | 0.15 | 0.00 | 90 | 1009.8 |
| 20260505101836 | 59 | 34 | 1.7 | 2.6 | 0.00 | 0.15 | 0.00 | 88 | 1009.9 |
| 20260505100835 | 59 | 43 | 0.9 | 5.2 | 0.00 | 0.15 | 0.00 | 89 | 1010.0 |
| 20260505100336 | 59 | 42 | 0.0 | 4.3 | 0.00 | 0.15 | 0.00 | 90 | 1010.0 |
| 20260505095838 | 59 | 19 | 0.0 | 4.3 | 0.00 | 0.15 | 0.00 | 89 | 1010.0 |
| 20260505095336 | 59 | 60 | 0.0 | 1.7 | 0.00 | 0.15 | 0.00 | 90 | 1010.0 |
| 20260505094836 | 59 | 120 | 0.0 | 1.7 | 0.00 | 0.15 | 0.00 | 90 | 1010.0 |
| 20260505094337 | 58 | 157 | 0.0 | 1.7 | 0.00 | 0.15 | 0.00 | 91 | 1010.0 |
| 20260505093836 | 58 | 157 | 0.0 | 0.9 | 0.00 | 0.15 | 0.00 | 91 | 1010.0 |
| 20260505092838 | 58 | 177 | 0.0 | 2.6 | 0.00 | 0.15 | 0.00 | 91 | 1010.0 |
| 20260505085336 | 58 | 134 | 0.0 | 1.7 | 0.00 | 0.15 | 0.00 | 92 | 1010.2 |
| 20260505084836 | 58 | 93 | 0.0 | 1.7 | 0.00 | 0.15 | 0.00 | 93 | 1010.2 |
| 20260505082839 | 57 | 77 | 0.0 | 1.7 | 0.00 | 0.15 | 0.00 | 94 | 1010.3 |
| 20260505082336 | 57 | 59 | 0.0 | 1.7 | 0.00 | 0.15 | 0.00 | 95 | 1010.3 |
| 20260505081836 | 57 | 64 | 0.0 | 1.7 | 0.00 | 0.15 | 0.00 | 95 | 1010.3 |
| 20260505080836 | 57 | 301 | 0.0 | 0.0 | 0.00 | 0.15 | 0.00 | 95 | 1010.4 |
| 20260505073844 | 56 | 306 | 0.0 | 1.7 | 0.00 | 0.15 | 0.00 | 98 | 1010.4 |
| 20260505073335 | 56 | 180 | 0.0 | 1.7 | 0.00 | 0.15 | 0.00 | 98 | 1010.4 |
| 20260505072839 | 56 | 185 | 0.0 | 2.6 | 0.00 | 0.15 | 0.00 | 98 | 1010.4 |
| 20260505071836 | 56 | 295 | 0.0 | 1.7 | 0.00 | 0.15 | 0.00 | 99 | 1010.6 |
| 20260505071336 | 56 | 274 | 0.0 | 2.6 | 0.00 | 0.15 | 0.00 | 98 | 1010.6 |
| 20260505070336 | 55 | 119 | 0.0 | 1.7 | 0.00 | 0.15 | 0.00 | 99 | 1010.6 |
| 20260505065838 | 55 | 119 | 0.0 | 1.7 | 0.00 | 0.15 | 0.00 | 99 | 1010.6 |
| 20260505064836 | 55 | 112 | 0.0 | 0.9 | 0.00 | 0.15 | 0.00 | 99 | 1010.6 |
| 20260505064336 | 55 | 107 | 0.0 | 2.6 | 0.00 | 0.15 | 0.00 | 99 | 1010.6 |
| 20260505063836 | 55 | 48 | 0.0 | 1.7 | 0.00 | 0.15 | 0.00 | 99 | 1010.7 |
| 20260505063336 | 55 | 157 | 0.0 | 2.6 | 0.00 | 0.15 | 0.00 | 99 | 1010.7 |
| 20260505062840 | 55 | 281 | 0.0 | 4.3 | 0.00 | 0.15 | 0.00 | 99 | 1010.7 |
| 20260505062335 | 55 | 108 | 0.0 | 4.3 | 0.00 | 0.15 | 0.00 | 99 | 1010.7 |
| 20260505061836 | 55 | 130 | 0.0 | 0.0 | 0.00 | 0.15 | 0.00 | 99 | 1010.7 |
| 20260505061336 | 54 | 130 | 0.0 | 1.7 | 0.00 | 0.15 | 0.00 | 99 | 1010.7 |
| 20260505055838 | 54 | 186 | 0.0 | 1.7 | 0.00 | 0.15 | 0.00 | 99 | 1010.8 |
| 20260505054836 | 54 | 137 | 0.0 | 0.9 | 0.00 | 0.15 | 0.00 | 99 | 1010.8 |
| 20260505053835 | 54 | 139 | 0.0 | 1.7 | 0.00 | 0.15 | 0.00 | 99 | 1010.8 |
| 20260505053336 | 54 | 139 | 0.0 | 1.7 | 0.00 | 0.15 | 0.00 | 99 | 1010.8 |
| 20260505051836 | 54 | 103 | 0.0 | 0.0 | 0.00 | 0.15 | 0.00 | 99 | 1010.8 |
| 20260505051335 | 54 | 103 | 0.0 | 0.9 | 0.00 | 0.15 | 0.00 | 99 | 1010.8 |
| 20260505050336 | 53 | 87 | 0.0 | 0.0 | 0.00 | 0.15 | 0.00 | 99 | 1010.8 |